Probability
4 7 10 12 10 7 7 7 6 4 3 3 2 1 0 0 0 0 0 0 1 2 4 5 5 4 4 4 3 3 3 3 3 3 3 3 2 1 0 0 0 0 0
5 7 10 11 9 7 6 7 6 4 3 3 3 1 0 0 0 0 0 0 0 1 3 5 4 3 2 1 1 2 3 3 3 3 3 3 2 1 0 0 0 0 0
5 6 8 9 8 6 6 5 4 3 3 3 3 2 1 0 0 0 0 1 1 1 3 4 4 2 1 0 0 1 3 3 3 3 3 2 2 1 0 0 0 0 0
6 6 7 8 6 5 4 4 3 3 3 4 3 3 1 1 0 0 1 2 2 3 3 3 3 2 1 0 0 1 2 3 3 3 1 1 1 0 0 0 0 0 0
9 8 8 7 6 5 4 3 3 3 4 4 4 3 3 2 1 0 1 3 3 3 3 3 3 3 1 0 0 1 2 3 3 2 1 0 0 0 0 0 0 0 0
10 10 9 8 7 6 5 4 3 3 3 4 3 3 3 3 2 2 2 3 3 3 3 3 3 3 2 1 1 1 2 3 3 1 0 0 0 0 0 0 0 0 0
10 10 9 9 8 7 5 4 3 3 3 3 3 3 3 3 3 3 3 3 3 3 3 3 3 3 3 2 1 1 2 2 2 1 0 0 0 0 0 0 0 0 0
9 9 9 9 9 7 5 3 3 3 3 3 3 3 3 3 3 3 3 3 3 3 3 3 3 3 3 3 2 1 1 1 1 0 0 0 0 0 0 0 0 0 0
8 8 7 7 8 7 4 3 3 3 3 3 4 3 3 3 3 3 3 3 3 3 3 3 3 3 3 3 3 1 0 0 0 0 0 0 0 0 0 0 0 0 0
6 7 6 5 6 6 5 4 3 3 3 4 4 4 3 3 3 3 3 3 3 3 3 3 3 3 3 3 3 2 1 0 0 0 0 0 0 0 0 0 0 0 0
4 6 5 4 4 5 5 5 4 3 3 4 4 4 4 3 3 3 3 3 3 3 3 3 3 3 3 3 3 3 2 1 0 0 0 0 0 0 0 0 0 0 0
1 3 3 3 3 4 5 4 3 3 4 4 5 6 5 4 3 3 3 3 3 3 3 3 3 3 3 3 3 3 3 2 1 0 0 0 0 0 0 0 0 0 0
0 1 2 3 3 4 4 4 4 4 5 6 6 6 6 5 4 3 3 3 3 3 3 3 3 3 3 3 3 3 3 3 2 1 0 0 0 0 0 0 0 0 0
0 0 1 2 3 4 5 6 6 6 6 6 6 6 6 6 5 4 3 3 3 3 3 3 3 3 3 3 3 3 3 3 3 1 0 0 0 0 0 0 0 0 0
0 0 0 1 2 4 5 6 6 6 6 6 6 6 6 6 6 4 3 3 3 3 3 3 3 3 3 3 3 3 3 3 3 2 1 0 0 0 0 0 0 0 0
0 0 0 0 1 2 4 5 6 6 6 6 6 6 6 6 5 4 3 3 3 3 3 3 3 3 3 3 3 3 3 3 3 2 1 0 0 0 0 0 0 0 0
0 0 0 0 0 1 1 3 4 4 5 6 6 6 6 5 4 3 3 3 3 3 3 3 3 3 3 3 2 2 3 3 3 2 1 0 0 0 0 0 0 0 0
0 0 0 0 0 0 0 1 3 3 4 4 4 5 5 4 3 3 3 3 3 3 3 3 3 3 3 2 1 1 2 3 3 2 1 0 0 0 0 0 0 0 0
0 0 0 0 0 0 0 1 2 3 3 3 3 4 4 3 3 3 3 3 2 2 2 2 2 3 2 1 0 1 2 3 3 2 1 0 0 0 0 0 0 0 0
0 0 0 0 0 0 0 1 2 3 3 3 3 3 3 3 3 3 2 1 1 1 1 1 1 1 1 1 0 0 1 3 3 1 0 0 0 0 0 0 0 0 0
0 0 0 0 0 0 0 1 2 3 3 3 3 3 3 3 2 2 1 0 0 0 0 0 0 0 0 0 0 0 1 2 2 1 0 0 0 0 0 0 0 0 0
0 0 0 0 0 0 0 1 2 3 3 3 3 3 2 1 1 1 0 0 0 0 0 0 0 0 0 0 0 0 0 1 2 2 1 0 0 0 0 0 0 0 0
0 0 0 1 1 1 0 1 1 1 1 2 2 1 1 0 0 0 0 0 0 0 0 0 0 0 0 0 0 0 0 0 1 1 1 0 0 0 0 0 0 0 0
0 0 0 1 2 2 1 0 0 0 0 1 1 0 0 0 0 0 0 0 0 0 0 0 0 0 0 0 0 0 0 0 0 0 0 0 0 0 0 0 0 0 0
0 0 0 1 1 2 1 0 0 0 0 0 0 0 0 0 0 0 0 0 0 0 0 0 0 0 0 0 0 0 0 0 0 0 0 0 0 0 0 0 0 0 0
0 0 0 0 0 1 1 0 0 0 0 0 0 0 0 0 0 0 0 0 0 0 0 0 0 0 0 0 0 0 0 0 0 0 0 0 0 0 0 0 0 0 0
Wind_Speed
2 3 3 3 3 3 3 2 1 1 1 1 1 0 1 1 1 1 1 0 0 1 2 2 2 2 2 2 2 2 2 1 1 1 1 2 1 1 1 1 2 2 3
2 2 3 3 3 3 3 2 2 1 1 1 0 1 0 0 0 1 2 1 0 1 1 2 2 2 1 2 2 2 2 1 1 1 1 2 2 2 1 1 2 2 2
5 4 3 3 3 3 3 2 2 1 1 1 1 1 1 1 2 2 2 2 1 1 1 2 2 2 1 1 1 2 3 1 0 1 2 1 1 2 2 1 1 1 1
3 4 4 4 3 3 2 2 2 1 1 2 2 2 1 1 0 0 0 1 1 0 1 2 2 2 1 1 1 2 2 2 1 0 0 1 2 1 2 2 1 2 2
4 4 4 3 3 2 2 2 1 1 1 1 2 1 1 1 0 1 1 2 2 1 1 1 1 1 1 1 1 2 2 2 2 2 1 1 0 1 2 2 3 2 2
3 3 2 2 2 2 2 2 2 1 1 1 1 2 2 1 1 1 1 1 1 1 1 1 1 1 1 1 1 1 2 1 2 1 1 2 1 2 2 3 3 3 3
4 3 3 2 2 2 2 2 2 1 1 1 1 1 1 2 2 1 0 0 1 1 1 0 1 1 1 1 1 1 1 2 2 2 1 2 2 1 2 2 2 2 2
4 4 4 3 2 2 1 1 1 1 1 1 0 0 1 1 1 1 1 1 1 1 1 0 0 1 1 1 1 1 1 1 1 2 2 1 2 2 2 2 2 2 2
4 4 3 2 2 2 2 2 2 1 1 1 1 0 1 1 1 1 1 1 1 1 0 0 0 0 1 1 2 1 1 1 1 1 1 1 2 2 2 2 3 3 3
2 2 3 3 2 2 2 1 2 2 1 1 1 1 1 1 1 1 1 1 0 0 1 1 1 1 1 1 1 1 0 0 1 1 1 1 2 1 1 2 2 2 3
4 3 2 2 2 2 2 1 1 1 1 1 1 1 1 1 1 1 1 1 0 0 0 0 1 1 1 1 1 0 0 0 1 1 1 2 2 1 1 1 1 2 2
3 3 2 2 2 2 2 2 2 2 2 1 1 1 1 1 1 0 1 1 1 0 1 1 1 0 0 0 0 1 1 1 1 1 1 2 1 1 1 1 2 2 2
2 2 2 2 3 3 2 2 2 3 2 2 1 1 1 1 1 1 1 1 1 0 1 1 1 0 1 1 1 1 1 1 2 2 2 2 2 2 1 1 2 2 2
2 2 2 2 3 3 2 2 3 3 2 2 2 2 2 1 1 1 1 0 0 1 0 0 0 1 1 1 1 1 1 1 2 2 2 2 2 3 2 2 2 2 1
1 2 3 2 2 2 2 2 2 2 2 2 2 2 1 1 1 1 1 1 1 1 1 0 1 1 1 1 1 1 1 1 2 2 2 2 3 3 2 2 2 2 1
2 2 1 1 2 2 2 2 2 2 2 3 3 2 1 1 1 2 1 1 1 1 0 1 1 2 2 2 2 1 1 1 2 2 3 3 3 4 4 3 2 2 3
2 2 3 3 3 3 3 3 2 1 2 3 3 2 2 2 2 2 2 2 2 1 1 1 1 2 3 3 3 2 1 2 2 2 2 3 3 3 3 3 3 3 3
2 2 2 2 2 2 2 2 2 2 2 2 2 2 2 2 1 1 2 2 2 2 2 2 2 2 3 3 3 2 1 2 2 3 3 3 3 3 2 2 2 3 3
3 3 2 2 1 2 2 2 1 1 2 3 3 3 3 2 2 2 3 2 2 2 2 2 2 3 4 3 3 2 1 2 3 3 2 3 3 4 3 2 3 4 4
1 1 0 1 0 1 1 2 1 1 2 3 3 3 3 3 3 3 3 2 2 2 2 2 2 3 3 4 3 2 1 2 3 3 3 3 4 4 3 2 3 4 4
0 1 1 1 0 0 2 2 1 2 3 2 2 2 2 3 3 2 2 2 2 1 1 2 2 2 3 4 3 3 2 3 3 3 3 3 5 5 4 3 4 6 5
0 1 1 0 0 1 2 2 2 3 1 1 1 1 1 2 2 2 1 1 1 1 1 2 3 2 3 3 3 4 4 4 3 3 3 4 5 5 5 3 4 5 3
1 1 1 0 1 0 2 3 3 2 1 0 1 1 1 1 1 2 2 1 1 1 1 1 2 3 3 3 4 4 4 4 3 3 4 5 4 4 3 4 3 2 1
1 1 1 0 2 1 1 3 2 2 2 1 1 1 1 0 1 1 2 2 2 2 2 2 3 3 3 3 2 2 2 3 3 3 3 4 3 2 3 2 2 1 2
1 1 2 2 2 2 2 2 1 1 1 1 1 1 1 1 1 2 2 4 4 4 4 4 4 3 4 4 4 3 2 2 2 1 1 1 2 2 2 2 2 2 1
1 1 1 1 2 1 2 2 1 2 2 2 2 1 1 2 2 2 2 3 4 5 7 7 5 4 6 5 4 4 4 3 2 1 1 2 2 3 3 3 3 2 2
Wind_Direction
184 163 162 151 138 134 152 169 164 134 110 89 90 67 10 357 351 335 344 345 197 186 175 180 159 148 156 169 179 152 136 129 110 82 357 335 317 284 237 243 241 246 252
156 160 157 152 159 163 175 169 166 148 145 136 129 170 146 88 7 357 6 358 23 157 179 158 155 150 139 135 155 153 143 152 125 127 93 346 341 346 327 268 241 253 252
185 178 165 165 170 178 187 181 167 167 154 119 92 72 55 44 36 21 8 348 349 162 165 148 146 149 153 171 178 162 152 166 159 134 148 154 246 309 326 307 283 277 263
186 177 172 175 183 185 169 150 154 175 169 149 135 131 127 126 231 281 328 348 19 98 144 129 148 153 163 180 191 155 161 157 166 156 168 186 179 187 306 320 312 296 273
184 179 173 177 175 158 146 140 144 162 155 143 150 142 126 134 30 17 39 18 15 31 67 126 143 151 172 184 163 156 156 157 168 173 177 181 256 209 208 277 307 316 287
164 158 146 134 131 134 132 133 140 171 185 143 138 152 154 131 96 39 22 14 16 25 32 91 138 161 163 170 165 160 146 157 164 173 170 175 190 209 206 235 268 285 291
158 155 149 148 159 158 153 146 153 195 218 183 176 165 171 160 159 162 135 35 23 2 327 73 125 149 169 165 146 140 158 164 165 190 200 203 214 204 206 221 249 265 286
166 169 170 164 167 170 174 160 163 218 222 212 233 129 131 137 151 163 164 198 219 252 273 109 144 153 140 128 126 129 150 156 184 207 210 219 231 214 208 205 210 261 276
176 174 163 167 168 171 192 194 187 204 216 214 190 158 133 146 161 162 168 201 246 255 205 77 96 101 122 133 128 125 151 160 201 222 224 230 243 231 227 219 206 208 250
181 178 176 185 185 183 189 184 189 199 202 201 195 165 171 181 156 135 148 168 242 333 40 41 77 92 95 97 103 120 162 139 258 241 238 253 254 249 235 228 227 217 218
193 197 195 190 179 166 171 185 201 196 192 190 192 147 165 151 137 156 195 190 159 93 56 320 122 122 119 105 115 172 186 197 282 289 264 276 258 250 248 237 223 222 214
196 194 189 173 175 188 187 195 218 225 224 201 178 171 151 126 134 216 244 210 192 188 189 149 120 114 65 124 199 251 261 243 269 281 289 298 298 276 256 236 227 225 218
189 180 172 189 205 212 209 209 217 227 224 194 181 166 152 160 204 238 245 228 176 141 128 135 152 241 268 270 267 249 257 261 261 262 257 269 279 283 273 242 239 242 231
177 179 194 213 219 217 212 212 221 216 205 188 187 192 203 206 219 227 238 235 145 142 178 193 230 253 253 261 268 259 261 268 273 268 257 255 256 267 266 250 240 231 225
185 197 205 219 225 221 221 217 225 214 191 184 198 215 213 193 195 206 219 212 185 201 203 244 302 291 266 260 251 250 251 262 286 295 284 269 277 274 265 260 237 207 206
217 220 218 228 230 226 230 230 223 215 178 185 211 213 191 180 198 214 210 207 218 220 190 246 271 291 288 274 249 237 249 254 266 290 299 296 299 302 297 292 258 205 204
206 204 212 222 230 226 217 221 226 217 192 202 216 207 198 206 215 212 199 208 219 208 222 253 266 276 284 277 266 256 242 254 261 268 282 293 306 312 305 308 304 277 258
208 213 222 233 241 235 223 212 198 197 204 212 221 213 202 212 217 202 211 223 220 216 235 249 260 270 282 275 260 260 256 265 267 260 258 265 288 296 290 293 299 291 283
208 214 222 233 223 222 214 179 186 199 210 218 222 219 208 207 210 220 226 221 214 229 241 245 254 266 284 282 266 237 245 268 276 273 267 261 274 289 284 266 284 294 293
205 189 163 27 44 241 150 148 182 196 228 233 232 222 206 205 218 229 231 221 211 228 241 254 254 256 273 285 266 224 216 255 276 284 281 268 272 291 275 240 254 275 283
211 131 115 93 260 184 134 152 185 230 242 240 233 222 208 209 217 229 231 213 207 216 239 262 276 271 273 281 266 226 211 228 252 272 282 281 283 281 274 249 242 252 264
100 137 125 32 316 139 148 171 223 243 251 226 234 231 223 218 202 201 219 196 180 198 262 286 298 288 282 276 270 244 230 221 228 254 269 279 287 283 276 260 264 266 261
161 149 140 334 333 177 174 201 236 231 201 196 246 253 241 220 187 190 200 198 190 209 252 268 282 291 294 288 279 266 256 241 230 252 267 284 298 295 279 278 285 269 246
172 153 127 274 287 270 240 229 233 195 180 214 256 253 239 254 230 206 203 205 214 223 234 246 261 275 285 281 275 265 261 258 253 269 288 297 302 297 289 297 293 263 242
181 169 181 222 260 276 282 277 247 182 192 223 251 260 250 242 256 247 229 223 227 218 219 233 234 246 270 269 249 233 242 237 239 253 297 315 319 322 316 308 297 279 270
166 176 223 242 264 272 275 285 267 196 194 227 244 244 243 248 251 263 281 255 243 249 238 237 235 243 248 265 257 249 257 255 210 165 249 270 274 276 282 288 291 280 270